Tracking 29487 objects as of 10-Sep-2024
HD Live streaming from Space Station
objects crossing your sky now

STARLINK-5756

Track STARLINK-5756 now!
10-day predictions
STARLINK-5756 is classified as:


NORAD ID: 55598
Int'l Code: 2023-020AF
Perigee: 565.0 km
Apogee: 567.5 km
Inclination: 43.0 °
Period: 95.8 minutes
Semi major axis: 6937 km
RCS: Unknown
Launch date: February 12, 2023
Source: United States (US)
Launch site: AIR FORCE EASTERN TEST RANGE (AFETR)
Your satellite tracking list
Your tracking list is empty




NASA's NSSDC Master Catalog

Two Line Element Set (TLE):
1 55598U 23020AF  24253.90619275 -.00001830  00000-0 -12041-3 0  9999
2 55598  43.0034  77.7664 0001814 263.1295  96.9341 15.02532155 86967
Source of the keplerian elements: AFSPC